When you browse on this site, cookies collect data to enhance your experience and personalize the content and advertising you see.
Visit our Privacy Policy to learn more. By continuing to use the site, you agree to this use of cookies and data.
  • In Österreich
  • Länderverzeichnis
  • Für 7 Tage
  • Wassertemperatur
  • Wetterkarte
  • News
  • Widgets
  • user-avatar
    Anmelden

    Stündliche Wetter Wapi

    Heute, 29 Mai, Freitag

    Zeit Temperatur Niederschläge Wind Luftdruck Luftfeuchtigkeit
    00:00 +32°C° 0 mm 5 m/S 753 mmHg 81%
    01:00 +32°C° 0 mm 4 m/S 753 mmHg 82%
    02:00 +30°C° 0 mm 4 m/S 752 mmHg 82%
    03:00 +30°C° 0 mm 4 m/S 752 mmHg 83%
    04:00 +30°C° 0 mm 4 m/S 753 mmHg 85%
    05:00 +30°C° 0 mm 3 m/S 753 mmHg 86%
    06:00 +31°C° 0 mm 3 m/S 753 mmHg 80%
    07:00 +33°C° 0 mm 4 m/S 754 mmHg 73%
    08:00 +34°C° 0 mm 4 m/S 754 mmHg 67%
    09:00 +35°C° 0 mm 4 m/S 754 mmHg 62%
    10:00 +36°C° 0 mm 5 m/S 753 mmHg 57%
    11:00 +39°C° 0 mm 5 m/S 753 mmHg 52%
    12:00 +39°C° 0 mm 5 m/S 753 mmHg 52%
    13:00 +39°C° 0 mm 6 m/S 752 mmHg 51%
    14:00 +39°C° 0 mm 6 m/S 751 mmHg 51%
    15:00 +38°C° 0 mm 6 m/S 751 mmHg 54%
    16:00 +38°C° 0 mm 6 m/S 751 mmHg 57%
    17:00 +36°C° 0 mm 6 m/S 751 mmHg 60%
    18:00 +34°C° 0 mm 6 m/S 751 mmHg 67%
    19:00 +33°C° 0 mm 5 m/S 752 mmHg 74%
    20:00 +32°C° 0 mm 5 m/S 752 mmHg 82%
    21:00 +32°C° 0 mm 5 m/S 753 mmHg 83%
    22:00 +30°C° 0 mm 4 m/S 753 mmHg 84%
    23:00 +30°C° 0 mm 4 m/S 753 mmHg 85%

    Morgen, 30 Mai, Samstag

    Zeit Temperatur Niederschläge Wind Luftdruck Luftfeuchtigkeit
    00:00 +30°C° 0 mm 4 m/S 753 mmHg 85%
    01:00 +30°C° 0 mm 3 m/S 753 mmHg 85%
    02:00 +30°C° 0 mm 3 m/S 752 mmHg 85%
    03:00 +30°C° 0 mm 3 m/S 752 mmHg 86%
    04:00 +29°C° 0 mm 3 m/S 753 mmHg 87%
    05:00 +29°C° 0 mm 3 m/S 753 mmHg 89%
    06:00 +30°C° 0 mm 3 m/S 753 mmHg 81%
    07:00 +33°C° 0 mm 3 m/S 754 mmHg 74%
    08:00 +34°C° 0 mm 3 m/S 754 mmHg 67%
    09:00 +35°C° 0 mm 4 m/S 754 mmHg 62%
    10:00 +36°C° 0 mm 4 m/S 754 mmHg 58%
    11:00 +37°C° 0 mm 4 m/S 754 mmHg 54%
    12:00 +38°C° 0 mm 4 m/S 753 mmHg 52%
    13:00 +39°C° 0 mm 5 m/S 753 mmHg 50%
    14:00 +40°C° 0 mm 5 m/S 752 mmHg 48%
    15:00 +39°C° 0 mm 5 m/S 752 mmHg 50%
    16:00 +39°C° 0 mm 5 m/S 752 mmHg 52%
    17:00 +37°C° 0 mm 5 m/S 751 mmHg 54%
    18:00 +35°C° 0 mm 5 m/S 752 mmHg 63%
    19:00 +34°C° 0 mm 5 m/S 752 mmHg 71%
    20:00 +32°C° 0 mm 4 m/S 753 mmHg 79%
    21:00 +32°C° 0 mm 4 m/S 753 mmHg 82%
    22:00 +32°C° 0 mm 4 m/S 754 mmHg 84%
    23:00 +30°C° 0 mm 4 m/S 754 mmHg 86%

    übermorgen, 31 Mai, Sonntag

    Zeit Temperatur Niederschläge Wind Luftdruck Luftfeuchtigkeit
    00:00 +30°C° 0.1 mm 4 m/S 754 mmHg 86%
    01:00 +30°C° 0.1 mm 3 m/S 754 mmHg 86%
    02:00 +30°C° 0.1 mm 3 m/S 754 mmHg 86%
    03:00 +30°C° 0.1 mm 3 m/S 754 mmHg 86%
    04:00 +30°C° 0.1 mm 3 m/S 754 mmHg 85%
    05:00 +30°C° 0.1 mm 3 m/S 754 mmHg 84%
    06:00 +31°C° 0 mm 3 m/S 754 mmHg 77%
    07:00 +33°C° 0 mm 4 m/S 755 mmHg 70%
    08:00 +35°C° 0 mm 4 m/S 755 mmHg 63%
    09:00 +36°C° 0 mm 4 m/S 755 mmHg 59%
    10:00 +37°C° 0 mm 3 m/S 755 mmHg 54%
    11:00 +38°C° 0 mm 3 m/S 755 mmHg 49%
    12:00 +38°C° 0 mm 4 m/S 754 mmHg 48%
    13:00 +40°C° 0 mm 4 m/S 753 mmHg 46%
    14:00 +40°C° 0 mm 5 m/S 753 mmHg 44%
    15:00 +39°C° 0 mm 5 m/S 752 mmHg 48%
    16:00 +38°C° 0 mm 6 m/S 752 mmHg 52%
    17:00 +36°C° 0 mm 6 m/S 752 mmHg 55%
    18:00 +35°C° 0 mm 6 m/S 752 mmHg 63%
    19:00 +34°C° 0 mm 5 m/S 753 mmHg 70%
    20:00 +32°C° 0 mm 5 m/S 753 mmHg 78%
    21:00 +32°C° 0 mm 4 m/S 754 mmHg 80%
    22:00 +32°C° 0 mm 4 m/S 754 mmHg 82%
    23:00 +30°C° 0 mm 3 m/S 754 mmHg 84%

    1 Juni, Montag

    Zeit Temperatur Niederschläge Wind Luftdruck Luftfeuchtigkeit
    00:00 +30°C° 0 mm 3 m/S 754 mmHg 85%
    01:00 +30°C° 0 mm 3 m/S 754 mmHg 86%
    02:00 +30°C° 0 mm 2 m/S 754 mmHg 86%
    03:00 +30°C° 0 mm 2 m/S 754 mmHg 86%
    04:00 +30°C° 0 mm 2 m/S 754 mmHg 87%
    05:00 +29°C° 0 mm 2 m/S 754 mmHg 87%
    06:00 +30°C° 0.1 mm 2 m/S 754 mmHg 82%
    07:00 +31°C° 0.1 mm 2 m/S 755 mmHg 76%
    08:00 +32°C° 0.1 mm 2 m/S 755 mmHg 71%
    09:00 +34°C° 0 mm 2 m/S 755 mmHg 67%
    10:00 +35°C° 0 mm 2 m/S 755 mmHg 63%
    11:00 +35°C° 0 mm 2 m/S 755 mmHg 59%
    12:00 +36°C° 0 mm 2 m/S 754 mmHg 57%
    13:00 +36°C° 0 mm 3 m/S 753 mmHg 55%
    14:00 +36°C° 0 mm 4 m/S 752 mmHg 53%
    15:00 +36°C° 0 mm 4 m/S 752 mmHg 53%
    16:00 +36°C° 0 mm 4 m/S 752 mmHg 53%
    17:00 +36°C° 0 mm 5 m/S 751 mmHg 53%
    18:00 +35°C° 0 mm 4 m/S 752 mmHg 61%
    19:00 +33°C° 0 mm 4 m/S 752 mmHg 70%
    20:00 +32°C° 0 mm 4 m/S 752 mmHg 79%
    21:00 +31°C° 0 mm 3 m/S 753 mmHg 80%
    22:00 +31°C° 0 mm 3 m/S 753 mmHg 82%
    23:00 +31°C° 0 mm 2 m/S 754 mmHg 83%

    2 Juni, Dienstag

    Zeit Temperatur Niederschläge Wind Luftdruck Luftfeuchtigkeit
    00:00 +30°C° 0 mm 3 m/S 753 mmHg 84%
    01:00 +30°C° 0 mm 3 m/S 753 mmHg 84%
    02:00 +30°C° 0 mm 3 m/S 753 mmHg 85%
    03:00 +30°C° 0 mm 4 m/S 753 mmHg 84%
    04:00 +30°C° 0 mm 4 m/S 753 mmHg 84%
    05:00 +30°C° 0 mm 4 m/S 753 mmHg 84%
    06:00 +30°C° 0 mm 4 m/S 754 mmHg 77%
    07:00 +32°C° 0 mm 4 m/S 754 mmHg 70%
    08:00 +33°C° 0 mm 4 m/S 754 mmHg 63%
    09:00 +34°C° 0 mm 3 m/S 754 mmHg 57%
    10:00 +35°C° 0 mm 3 m/S 754 mmHg 51%
    11:00 +36°C° 0 mm 2 m/S 754 mmHg 45%
    12:00 +35°C° 0 mm 2 m/S 753 mmHg 48%
    13:00 +35°C° 0 mm 2 m/S 753 mmHg 51%
    14:00 +34°C° 0 mm 3 m/S 752 mmHg 54%
    15:00 +34°C° 0 mm 3 m/S 752 mmHg 58%
    16:00 +33°C° 0 mm 3 m/S 752 mmHg 63%
    17:00 +33°C° 0 mm 3 m/S 752 mmHg 67%
    18:00 +33°C° 0.1 mm 3 m/S 752 mmHg 68%
    19:00 +31°C° 0.1 mm 3 m/S 752 mmHg 69%
    20:00 +31°C° 0.1 mm 3 m/S 753 mmHg 70%
    21:00 +31°C° 0 mm 3 m/S 753 mmHg 69%
    22:00 +31°C° 0 mm 3 m/S 753 mmHg 67%
    23:00 +30°C° 0 mm 3 m/S 753 mmHg 65%

    3 Juni, Mittwoch

    Zeit Temperatur Niederschläge Wind Luftdruck Luftfeuchtigkeit
    00:00 +30°C° 0 mm 3 m/S 753 mmHg 65%
    01:00 +30°C° 0 mm 2 m/S 752 mmHg 65%
    02:00 +30°C° 0 mm 1 m/S 752 mmHg 65%
    03:00 +29°C° 0 mm 1 m/S 752 mmHg 66%
    04:00 +29°C° 0 mm 1 m/S 752 mmHg 67%
    05:00 +29°C° 0 mm 1 m/S 752 mmHg 68%
    06:00 +29°C° 0 mm 1 m/S 752 mmHg 66%
    07:00 +30°C° 0 mm 1 m/S 752 mmHg 64%
    08:00 +30°C° 0 mm 1 m/S 753 mmHg 61%
    09:00 +31°C° 0 mm 1 m/S 753 mmHg 60%
    10:00 +31°C° 0 mm 2 m/S 753 mmHg 59%
    11:00 +31°C° 0 mm 2 m/S 753 mmHg 58%
    12:00 +30°C° 0.2 mm 3 m/S 752 mmHg 63%
    13:00 +30°C° 0.2 mm 4 m/S 752 mmHg 67%
    14:00 +29°C° 0.2 mm 4 m/S 751 mmHg 72%
    15:00 +28°C° 1.8 mm 4 m/S 751 mmHg 76%
    16:00 +28°C° 1.8 mm 4 m/S 751 mmHg 81%
    17:00 +27°C° 1.8 mm 4 m/S 751 mmHg 86%
    18:00 +27°C° 0.9 mm 4 m/S 751 mmHg 84%
    19:00 +28°C° 0.9 mm 4 m/S 751 mmHg 82%
    20:00 +28°C° 0.9 mm 4 m/S 751 mmHg 80%
    21:00 +28°C° 0.6 mm 4 m/S 751 mmHg 80%
    22:00 +28°C° 0.6 mm 4 m/S 751 mmHg 80%
    23:00 +28°C° 0.6 mm 3 m/S 751 mmHg 80%
    Mehr zeigen